PROBA-1 1 26958U 01049B 26095.51379943 .00003854 00000+0 25167-3 0 9990 2 26958 97.9623 101.5165 0055640 10.3053 349.9300 15.07208861332676 CUTE-1 (CO-55) 1 27844U 03031E 26095.46987272 .00000480 00000+0 22670-3 0 9990 2 27844 98.6770 104.9369 0010310 42.6071 317.5906 14.24289988181322 CUBESAT XI-IV (CO-57) 1 27848U 03031J 26095.00030604 .00000375 00000+0 18383-3 0 9991 2 27848 98.6802 104.2449 0010479 60.3929 299.8292 14.23580899180962 APRIZESAT 4 1 35684U 09041D 26095.15819271 .00001361 00000+0 16877-3 0 9998 2 35684 98.1445 169.0207 0043012 196.7975 163.1816 14.83767003900530 APRIZESAT 3 1 35686U 09041F 26095.39943203 .00002148 00000+0 19041-3 0 9999 2 35686 98.1951 245.1889 0061127 308.0019 51.5690 14.96001561905494 PROBA-2 1 36037U 09059B 26095.47502571 .00000345 00000+0 90873-4 0 9997 2 36037 98.2445 279.8361 0013977 141.3304 218.8896 14.54810402870952 APRIZESAT 5 1 37792U 11044E 26095.51231304 .00001607 00000+0 21071-3 0 9996 2 37792 98.2422 26.5178 0051156 236.0448 123.5895 14.80937827788039 APRIZESAT 6 1 37793U 11044F 26095.53819742 .00001387 00000+0 20278-3 0 9990 2 37793 98.2399 4.5461 0042358 319.8993 214.5227 14.76816379786427 PROBA-V 1 39159U 13021A 26095.23346276 .00000121 00000+0 71298-4 0 9993 2 39159 98.3543 77.4616 0004115 3.6709 356.4500 14.23581235670738 APRIZESAT 7 1 39416U 13066A 26095.42943826 .00002534 00000+0 25620-3 0 9990 2 39416 97.7646 49.7347 0037582 92.4075 268.1447 14.91382008670382 APRIZESAT 8 1 39425U 13066K 26095.42816685 .00001614 00000+0 18074-3 0 9995 2 39425 97.8160 43.9492 0046409 163.5653 196.7080 14.87499354668857 BUGSAT-1 (TITA) 1 40014U 14033E 26095.52566551 .00010040 00000+0 53729-3 0 9990 2 40014 98.0409 183.8784 0029577 70.2605 290.1812 15.14882249644832 SAUDISAT 4 1 40016U 14033G 26095.41407963 .00001082 00000+0 14965-3 0 9996 2 40016 97.7468 244.1120 0043755 311.4242 48.3214 14.79439943635312 APRIZESAT 9 1 40018U 14033J 26095.37701881 .00001132 00000+0 17321-3 0 9994 2 40018 97.8936 230.4055 0067551 74.7970 286.0696 14.74132369632833 APRIZESAT 10 1 40019U 14033K 26095.33589699 .00001233 00000+0 20022-3 0 9996 2 40019 97.9528 223.9721 0079719 145.6756 214.9639 14.70808263631541 TECHDEMOSAT-1 (TDS-1) 1 40076U 14037H 26095.52872947 .00010335 00000+0 60284-3 0 9992 2 40076 98.3804 80.6217 0007479 141.9054 218.2704 15.12161963637247 TECHNOSAT 1 42829U 17042E 26095.49931249 .00004649 00000+0 33498-3 0 9994 2 42829 97.4207 255.9810 0017148 348.4283 11.6547 15.04524029475775 FLYING LAPTOP 1 42831U 17042G 26095.51729786 .00001909 00000+0 15468-3 0 9994 2 42831 97.4367 254.0146 0019684 12.0206 348.1484 15.00706124475551 HAWK-A 1 43765U 18099H 26095.40922240 .00009892 00000+0 40752-3 0 9995 2 43765 97.3993 148.6164 0035763 179.0254 181.1060 15.23701248402016 HAWK-B 1 43794U 18099AN 26095.41125557 .00009082 00000+0 39553-3 0 9992 2 43794 97.4041 148.1815 0032337 196.0793 163.9420 15.21960468401962 HAWK-C 1 43799U 18099AT 26095.41485116 .00012074 00000+0 44720-3 0 9994 2 43799 97.3967 149.1869 0041721 180.7540 179.3643 15.26964334402803 SALSAT 1 46495U 20068K 26095.51475441 .00009868 00000+0 35563-3 0 9992 2 46495 97.8868 94.2178 0009618 186.7469 173.3642 15.28736769304256 HAWK-2C 1 47502U 21006CT 26095.36407263 .00008495 00000+0 26212-3 0 9991 2 47502 97.2354 141.1442 0008897 101.7100 258.5141 15.33773559288337 HAWK-2A 1 47505U 21006CW 26095.36719637 .00008565 00000+0 26418-3 0 9991 2 47505 97.2401 141.7823 0008455 104.5927 255.6254 15.33785789288331 HAWK-2B 1 47508U 21006CZ 26095.10336103 .00009863 00000+0 30387-3 0 9991 2 47508 97.2275 139.9767 0009036 103.3177 256.9074 15.33775652288296 HAWK-3B 1 48931U 21059BE 26095.50864104 .00046339 00000+0 49182-3 0 9993 2 48931 97.6714 285.6565 0005094 226.1954 133.8884 15.63940854266470 HAWK-3C 1 48948U 21059BX 26095.50832300 .00045100 00000+0 47893-3 0 9996 2 48948 97.6847 291.2095 0005306 226.4683 133.6134 15.63931923266477 HAWK-3A 1 48957U 21059CG 26095.50821467 .00046839 00000+0 49726-3 0 9995 2 48957 97.6789 288.4742 0005084 226.0997 133.9842 15.63932077266476 HAWK-5C 1 52754U 22057Y 26095.48343394 .00023889 00000+0 44562-3 0 9992 2 52754 97.6503 250.6631 0004278 340.4020 19.7065 15.48794940215087 HAWK-5B 1 52756U 22057AA 26095.48325785 .00023848 00000+0 44481-3 0 9993 2 52756 97.6510 249.0043 0004180 333.4746 26.6289 15.48797877215082 HAWK-5A 1 52757U 22057AB 26095.48305847 .00024376 00000+0 45453-3 0 9998 2 52757 97.6507 249.8381 0004612 336.3937 23.7101 15.48800775215089 HAWK-6B 1 55324U 23011A 26095.18075952 .00008021 00000+0 34919-3 0 9994 2 55324 40.4995 57.6768 0004643 249.2628 110.7684 15.22271244176710 HAWK-6C 1 55326U 23011C 26095.24576429 .00008227 00000+0 35789-3 0 9992 2 55326 40.4989 54.1450 0004518 239.6671 120.3691 15.22274732176739 HAWK-6A 1 55327U 23011D 26095.24578882 .00008147 00000+0 35449-3 0 9992 2 55327 40.5003 55.7624 0004307 240.7448 119.2930 15.22273908176736 HAWK-7A 1 56191U 23054P 26095.50153420 .00006857 00000+0 26440-3 0 9992 2 56191 97.2785 344.6905 0001512 329.4951 30.6200 15.26626709165934 HAWK-7B 1 56193U 23054R 26095.43590521 .00008410 00000+0 32378-3 0 9997 2 56193 97.2817 342.8631 0001294 3.3277 356.7970 15.26610295165922 HAWK-7C 1 56200U 23054Y 26095.43579945 .00008279 00000+0 31880-3 0 9993 2 56200 97.2791 343.6550 0000946 337.0803 23.0393 15.26606934165924